SKW6409 KTUS-KPHX

Flight info

Callsign SKW6409
Flight time 0h 24m
Altitude 16000
Route WLDKT4 HOTTT PINNG1
Aircraft E75L/M-SDE3GILORVW/S

Departure

Time 2026-04-24 04:05
Airport Tucson International Airport (KTUS)

Arrival

Time 2026-04-24 04:29
Airport Phoenix Sky Harbor International Airport (KPHX)
Time Latitude Longitude Altitude Speed Heading
2026-04-24 03:50 32.12141 -110.94018 2591 ft 0 kts 129°
2026-04-24 03:56 32.12147 -110.94027 2587 ft 2 kts 129°
2026-04-24 03:56 32.12157 -110.94042 2582 ft 2 kts 128°
2026-04-24 03:57 32.12169 -110.94057 2583 ft 2 kts 151°
2026-04-24 03:57 32.12182 -110.94057 2589 ft 1 kts 204°
2026-04-24 03:57 32.12183 -110.94056 2582 ft 0 kts 206°
2026-04-24 03:59 32.12147 -110.94070 2584 ft 10 kts 195°
2026-04-24 03:59 32.12049 -110.94090 2591 ft 18 kts 184°
2026-04-24 03:59 32.11923 -110.94058 2589 ft 20 kts 138°
2026-04-24 03:59 32.11828 -110.93948 2589 ft 19 kts 135°
2026-04-24 04:00 32.11729 -110.93832 2594 ft 21 kts 134°
2026-04-24 04:00 32.11630 -110.93716 2600 ft 20 kts 139°
2026-04-24 04:00 32.11559 -110.93649 2602 ft 13 kts 119°
2026-04-24 04:00 32.11479 -110.93540 2607 ft 22 kts 134°
2026-04-24 04:01 32.11374 -110.93416 2613 ft 21 kts 133°
2026-04-24 04:01 32.11276 -110.93297 2616 ft 19 kts 136°
2026-04-24 04:01 32.11179 -110.93189 2618 ft 22 kts 134°
2026-04-24 04:01 32.11058 -110.93048 2621 ft 26 kts 134°
2026-04-24 04:02 32.10942 -110.92904 2624 ft 23 kts 136°
2026-04-24 04:02 32.10833 -110.92778 2631 ft 20 kts 135°
2026-04-24 04:02 32.10733 -110.92662 2635 ft 20 kts 138°
2026-04-24 04:02 32.10637 -110.92552 2641 ft 19 kts 134°
2026-04-24 04:03 32.10545 -110.92445 2644 ft 19 kts 134°
2026-04-24 04:03 32.10447 -110.92328 2646 ft 21 kts 134°
2026-04-24 04:03 32.10366 -110.92239 2655 ft 11 kts 156°
2026-04-24 04:03 32.10300 -110.92265 2649 ft 11 kts 227°
2026-04-24 04:04 32.10262 -110.92349 2650 ft 12 kts 286°
2026-04-24 04:04 32.10436 -110.92560 2645 ft 73 kts 315°
2026-04-24 04:04 32.10983 -110.93204 2622 ft 147 kts 315°
2026-04-24 04:04 32.11813 -110.94173 3047 ft 183 kts 313°
2026-04-24 04:05 32.12754 -110.95295 3974 ft 202 kts 313°
2026-04-24 04:05 32.13736 -110.96447 4824 ft 210 kts 313°
2026-04-24 04:05 32.14706 -110.97611 6068 ft 197 kts 311°
2026-04-24 04:05 32.15702 -110.98846 6864 ft 211 kts 312°
2026-04-24 04:06 32.16767 -111.00085 7862 ft 220 kts 313°
2026-04-24 04:06 32.17911 -111.01420 8703 ft 242 kts 312°
2026-04-24 04:06 32.19155 -111.02877 9644 ft 260 kts 312°
2026-04-24 04:06 32.20487 -111.04440 10465 ft 282 kts 312°
2026-04-24 04:07 32.22020 -111.05987 11274 ft 303 kts 325°
2026-04-24 04:07 32.24083 -111.06765 12328 ft 322 kts 348°
2026-04-24 04:07 32.26365 -111.06740 13484 ft 334 kts 358°
2026-04-24 04:07 32.28699 -111.06476 14540 ft 339 kts 360°
2026-04-24 04:08 32.31060 -111.06201 15546 ft 345 kts 360°
2026-04-24 04:08 32.33503 -111.05915 15950 ft 370 kts
2026-04-24 04:08 32.36165 -111.05560 16112 ft 398 kts
2026-04-24 04:08 32.38863 -111.05158 15993 ft 385 kts
2026-04-24 04:09 32.41479 -111.04768 15966 ft 374 kts
2026-04-24 04:09 32.44034 -111.04393 15983 ft 367 kts
2026-04-24 04:09 32.46561 -111.04028 15979 ft 365 kts
2026-04-24 04:09 32.49074 -111.03663 15979 ft 363 kts
2026-04-24 04:10 32.51575 -111.03402 15982 ft 353 kts 352°
2026-04-24 04:10 32.53863 -111.04030 16003 ft 329 kts 328°
2026-04-24 04:10 32.55809 -111.05422 16028 ft 327 kts 322°
2026-04-24 04:11 32.59639 -111.08318 15942 ft 325 kts 322°
2026-04-24 04:11 32.61546 -111.09760 15950 ft 325 kts 322°
2026-04-24 04:11 32.63450 -111.11200 15958 ft 325 kts 322°
2026-04-24 04:11 32.65363 -111.12646 15936 ft 325 kts 322°
2026-04-24 04:12 32.67258 -111.14085 15948 ft 324 kts 322°
2026-04-24 04:12 32.69157 -111.15526 15949 ft 324 kts 322°
2026-04-24 04:12 32.71062 -111.16971 15941 ft 325 kts 322°
2026-04-24 04:12 32.72964 -111.18412 15945 ft 325 kts 322°
2026-04-24 04:13 32.74747 -111.19998 15936 ft 312 kts 308°
2026-04-24 04:13 32.76003 -111.22073 15983 ft 312 kts 300°
2026-04-24 04:13 32.77221 -111.24223 15983 ft 316 kts 301°
2026-04-24 04:13 32.78444 -111.26377 15991 ft 315 kts 301°
2026-04-24 04:14 32.79667 -111.28533 15994 ft 315 kts 301°
2026-04-24 04:14 32.80871 -111.30664 15990 ft 315 kts 301°
2026-04-24 04:14 32.82097 -111.32833 15804 ft 317 kts 300°
2026-04-24 04:14 32.83313 -111.34988 15633 ft 309 kts 300°
2026-04-24 04:15 32.84491 -111.37072 15423 ft 299 kts 300°
2026-04-24 04:15 32.85642 -111.39117 15030 ft 296 kts 300°
2026-04-24 04:15 32.86781 -111.41138 14709 ft 291 kts 300°
2026-04-24 04:15 32.87897 -111.43124 14389 ft 287 kts 300°
2026-04-24 04:16 32.88999 -111.45082 14063 ft 284 kts 300°
2026-04-24 04:16 32.90091 -111.47027 13767 ft 282 kts 300°
2026-04-24 04:16 32.90860 -111.48274 13528 ft 284 kts 309°
2026-04-24 04:16 32.92545 -111.49549 13247 ft 293 kts 331°
2026-04-24 04:17 32.94442 -111.50466 12914 ft 295 kts 332°
2026-04-24 04:17 32.96348 -111.51395 12562 ft 295 kts 332°
2026-04-24 04:17 32.98241 -111.52315 12233 ft 293 kts 332°
2026-04-24 04:17 33.00124 -111.53234 11913 ft 292 kts 332°
2026-04-24 04:18 33.02001 -111.54149 11600 ft 290 kts 332°
2026-04-24 04:18 33.03865 -111.55058 11281 ft 288 kts 333°
2026-04-24 04:18 33.05706 -111.55956 10943 ft 284 kts 333°
2026-04-24 04:18 33.07517 -111.56842 10679 ft 279 kts 334°
2026-04-24 04:19 33.09299 -111.57721 10365 ft 275 kts 333°
2026-04-24 04:19 33.11032 -111.58576 10078 ft 271 kts 334°
2026-04-24 04:19 33.12762 -111.59432 9772 ft 268 kts 334°
2026-04-24 04:19 33.14471 -111.60276 9479 ft 264 kts 334°
2026-04-24 04:20 33.16151 -111.61107 9203 ft 259 kts 334°
2026-04-24 04:20 33.17810 -111.61927 8919 ft 257 kts 334°
2026-04-24 04:20 33.19455 -111.62743 8643 ft 256 kts 334°
2026-04-24 04:20 33.21089 -111.63551 8367 ft 253 kts 334°
2026-04-24 04:21 33.22706 -111.64352 8089 ft 250 kts 334°
2026-04-24 04:21 33.24284 -111.65201 7816 ft 247 kts 330°
2026-04-24 04:21 33.25811 -111.66115 7545 ft 245 kts 331°
2026-04-24 04:21 33.27331 -111.67015 7272 ft 243 kts 331°
2026-04-24 04:22 33.28838 -111.67901 7004 ft 239 kts 331°
2026-04-24 04:22 33.30305 -111.68761 6719 ft 230 kts 330°
2026-04-24 04:22 33.31716 -111.69598 6467 ft 224 kts 330°
2026-04-24 04:22 33.33122 -111.70432 6247 ft 226 kts 330°
2026-04-24 04:23 33.34535 -111.71271 5998 ft 227 kts 330°
2026-04-24 04:23 33.35954 -111.72106 5753 ft 227 kts 330°
2026-04-24 04:23 33.37351 -111.72991 5469 ft 224 kts 320°
2026-04-24 04:23 33.38444 -111.74291 5266 ft 221 kts 310°
2026-04-24 04:24 33.39494 -111.75634 5010 ft 222 kts 311°
2026-04-24 04:24 33.40540 -111.76970 4659 ft 225 kts 310°
2026-04-24 04:24 33.41601 -111.78316 4408 ft 221 kts 310°
2026-04-24 04:24 33.42617 -111.79636 4159 ft 209 kts 305°
2026-04-24 04:25 33.43381 -111.81055 3951 ft 197 kts 297°
2026-04-24 04:25 33.43989 -111.82488 3752 ft 190 kts 285°
2026-04-24 04:25 33.44078 -111.84010 3505 ft 174 kts 265°
2026-04-24 04:25 33.44017 -111.85370 3328 ft 154 kts 270°
2026-04-24 04:26 33.44058 -111.86597 3144 ft 142 kts 270°
2026-04-24 04:26 33.44067 -111.87760 2967 ft 140 kts 270°
2026-04-24 04:26 33.44064 -111.88931 2796 ft 140 kts 268°
2026-04-24 04:26 33.44062 -111.90089 2613 ft 138 kts 268°
2026-04-24 04:27 33.44070 -111.91235 2442 ft 137 kts 268°
2026-04-24 04:27 33.44076 -111.92389 2254 ft 141 kts 269°
2026-04-24 04:27 33.44078 -111.93577 2086 ft 145 kts 268°
2026-04-24 04:27 33.44065 -111.94802 1909 ft 148 kts 268°
2026-04-24 04:28 33.44072 -111.96043 1679 ft 148 kts 271°
2026-04-24 04:28 33.44079 -111.97256 1515 ft 149 kts 270°
2026-04-24 04:28 33.44073 -111.98497 1302 ft 147 kts 268°
2026-04-24 04:28 33.44083 -111.99718 1138 ft 143 kts 269°
2026-04-24 04:29 33.44085 -112.00758 1127 ft 103 kts 270°
2026-04-24 04:29 33.44084 -112.01432 1128 ft 57 kts 270°
2026-04-24 04:29 33.44045 -112.01685 1126 ft 15 kts 214°
2026-04-24 04:29 33.43976 -112.01648 1117 ft 14 kts 99°
2026-04-24 04:30 33.43980 -112.01511 1124 ft 19 kts 74°
2026-04-24 04:30 33.43981 -112.01382 1124 ft 16 kts 105°
2026-04-24 04:30 33.43975 -112.01235 1125 ft 20 kts 89°
2026-04-24 04:30 33.43974 -112.01046 1119 ft 26 kts 90°
2026-04-24 04:31 33.43974 -112.00794 1124 ft 32 kts 90°
2026-04-24 04:31 33.43973 -112.00522 1124 ft 30 kts 89°
2026-04-24 04:31 33.43943 -112.00383 1123 ft 16 kts 166°
2026-04-24 04:31 33.43905 -112.00308 1123 ft 14 kts 90°
2026-04-24 04:32 33.43904 -112.00148 1123 ft 24 kts 90°
2026-04-24 04:32 33.43902 -111.99925 1123 ft 27 kts 85°
2026-04-24 04:32 33.43904 -111.99701 1123 ft 27 kts 90°
2026-04-24 04:32 33.43904 -111.99473 1123 ft 24 kts 89°
2026-04-24 04:33 33.43904 -111.99336 1123 ft 16 kts 105°
2026-04-24 04:33 33.43829 -111.99307 1119 ft 13 kts 184°
2026-04-24 04:33 33.43738 -111.99307 1120 ft 13 kts 176°
2026-04-24 04:33 33.43677 -111.99344 1119 ft 8 kts 241°
2026-04-24 04:34 33.43667 -111.99367 1122 ft 0 kts 242°